Location: Berkeley
(37.8716°N, 122.2727°W)
Time: 14:30:30
(UTC-07:00)

Tiangong - Pass Details

Date: 29 September 2021
Orbit: 382 x 385 km, 41.5° (Epoch: 19 October)

Event Time Altitude Azimuth Distance (km) Brightness Sun altitude
Exits shadow 04:54:40 23° 76° (ENE) 861 3.5 -25.9°
Drops below altitude 10° 04:56:01 10° 73° (ENE) 1,395 4.9 -25.6°
Sets 04:58:05 0° 72° (ENE) 2,249 6.3 -25.2°
